Home   Weather   Lyon   Past weeks

Flag for France Past Weather in Lyon, Rhône-Alpes, France — Yesterday and Last 2 Weeks

Now
64 °F

Clear.


Feels Like: 64 °F
Forecast: 64 / 84 °F
Wind: 2 mph from Southwest

Location: Lyon / Bron

Current Time: Aug 31, 2016 at 4:31:17 AM

Latest Report: Aug 31, 2016 at 4:00 AM


Visibility: 10 mi

Pressure: 30.09 "Hg

Humidity: 78%

Dew Point: 57 °F

Location of LyonLocation

Past Weather in Lyon — Graph

°F

Lyon Temperature Yesterday

Maximum temperature yesterday: 81 °F (at 4:30 PM)
Minimum temperature yesterday: 63 °F (at 7:00 AM)
Average temperature yesterday: 71 °F

High & Low Weather Summary for the Past Weeks

 TemperatureHumidityPressure
High95 °F (Aug 26, 4:30 PM)100% (Aug 19, 7:30 AM)30.36 "Hg (Aug 19, 7:30 AM)
Low55 °F (Aug 22, 5:30 AM)24% (Aug 28, 2:30 PM)29.83 "Hg (Aug 17, 5:00 PM)
Average74 °F60%30.06 "Hg
* Reported Aug 16 3:00 AM — Aug 31 3:30 AM, Lyon, Weather by CustomWeather, © 2016

Note: Actual official high and low records may vary slightly from our data, if they occured in-between our weather recording intervals... More about our weather records

Advertising

Lyon Weather History for the Previous 24 Hours

Scroll right to see more
 ConditionsComfort  
Time TempWeatherWind HumidityBarometerVisibility
3:30 AM
Wed, Aug 31
66 °FClear.3 mph78%30.09 "Hg10 mi
3:00 AM66 °FClear.3 mph78%30.09 "Hg10 mi
2:30 AM66 °FClear.2 mph78%30.09 "Hg10 mi
2:00 AM68 °FClear.2 mph73%30.09 "Hg10 mi
1:30 AM68 °FClear.3 mph73%30.09 "Hg10 mi
1:00 AM68 °FClear.2 mph73%30.09 "Hg10 mi
12:30 AM70 °FClear.3 mph73%30.09 "Hg10 mi
12:00 AM70 °FClear.2 mph73%30.09 "Hg10 mi
11:30 PM
Tue, Aug 30
72 °FClear.2 mph69%30.09 "Hg10 mi
11:00 PM72 °FClear.2 mph69%30.09 "Hg10 mi
10:30 PM72 °FClear.No wind65%30.09 "Hg10 mi
10:00 PM73 °FClear.No wind61%30.09 "Hg10 mi
9:30 PM75 °FClear.5 mph57%30.09 "Hg10 mi
9:00 PM77 °FSunny.5 mph54%30.09 "Hg10 mi
8:30 PM77 °FPassing clouds.6 mph54%30.09 "HgN/A
8:00 PM79 °FPassing clouds.6 mph51%30.07 "HgN/A
7:30 PM81 °FPassing clouds.6 mph48%30.07 "HgN/A
7:00 PM81 °FPassing clouds.5 mph48%30.07 "HgN/A
6:30 PM81 °FPassing clouds.6 mph48%30.07 "HgN/A
6:00 PM81 °FPassing clouds.8 mph48%30.07 "HgN/A
5:30 PM81 °FSunny.3 mph48%30.07 "Hg10 mi
5:00 PM81 °FPassing clouds.6 mph48%30.09 "HgN/A
4:30 PM81 °FPassing clouds.6 mph48%30.09 "HgN/A
4:00 PM79 °FPassing clouds.8 mph48%30.09 "HgN/A
3:30 PM79 °FSunny.5 mph48%30.09 "Hg10 mi
3:00 PM79 °FPassing clouds.7 mph48%30.12 "HgN/A
2:30 PM77 °FPassing clouds.9 mph54%30.12 "HgN/A
2:00 PM77 °FPassing clouds.8 mph51%30.12 "HgN/A
1:30 PM75 °FPassing clouds.7 mph54%30.12 "HgN/A
1:00 PM75 °FPassing clouds.7 mph54%30.15 "HgN/A
12:30 PM73 °FPassing clouds.6 mph57%30.15 "HgN/A
12:00 PM72 °FPassing clouds.3 mph61%30.15 "HgN/A
11:30 AM72 °FPassing clouds.7 mph61%30.15 "HgN/A
11:00 AM70 °FScattered clouds.9 mph64%30.15 "HgN/A
10:30 AM70 °FPassing clouds.10 mph64%30.15 "HgN/A
10:00 AM68 °FPassing clouds.9 mph69%30.15 "HgN/A
9:30 AM66 °FPassing clouds.10 mph73%30.15 "HgN/A
9:00 AM66 °FPassing clouds.12 mph73%30.15 "HgN/A
8:30 AM64 °FPassing clouds.10 mph78%30.15 "HgN/A
8:00 AM64 °FPassing clouds.9 mph78%30.15 "HgN/A
7:30 AM64 °FPassing clouds.9 mph78%30.15 "HgN/A
7:00 AM63 °FPassing clouds.8 mph77%30.15 "HgN/A
6:30 AM64 °FClear.13 mph73%30.12 "Hg10 mi
6:00 AM64 °FClear.13 mph73%30.12 "Hg10 mi
5:30 AM64 °FClear.15 mph73%30.12 "Hg10 mi
5:00 AM64 °FPassing clouds.14 mph73%30.12 "HgN/A
4:30 AM64 °FClear.13 mph73%30.12 "Hg10 mi
4:00 AM64 °FClear.9 mph73%30.15 "Hg10 mi
Weather by CustomWeather, © 2016

See weather overviewHow to use our weather pages